User: anonymous   Login
Location: Couloutre
(47.4081°N, 3.2259°E)
Time: 07:29:47
(UTC+00:00)
Language:

Cosmos 1937 Rocket - Orbit

View from above orbital plane
View from above orbital plane
View from above satellite
View from above satellite

Ground track
Ground track

The orbit data is extracted from the following two-line orbital elements,

1 19039U 88029B   20157.14223047 -.00000011  00000-0  48878-5 0  9990
2 19039  74.0483 103.1790 0023483   4.5880 355.5485 14.38474467686706
Epoch (UTC): 05 June 2020 03:24:48
Eccentricity: 0.0023483
inclination: 74.0483°
perigee height: 747 km
apogee height: 780 km
right ascension of ascending node: 103.1790°
argument of perigee: 4.5880°
revolutions per day: 14.38474467
mean anomaly at epoch: 355.5485°
orbit number at epoch: 68670

The dashed part of the orbit path shows where the satellite is in the earth's shadow,  

DLR